Weather Roundup
Issued by NWS Corpus Christi, TX

Home | Current Version | Previous Version | Text Only | Print | Product List | Glossary On
Versions: 1 2 3 4 5 6 7 8 9 10 11 12 13 14 15 16 17 18 19 20 21 22 23 24 25 26 27 28 29 30 31 32 33 34 35 36 37 38 39 40 41 42 43 44 45 46 47 48 49 50
000
ASUS44 KCRP 041110
HRRCRP

SOUTH TEXAS REGIONAL WEATHER ROUNDUP
NATIONAL WEATHER SERVICE CORPUS CHRISTI TX
600 AM CDT MON MAY 04 2015


TXZ229>244-041200-
...CORPUS CHRISTI AREA OBSERVATIONS...

CITY           SKY/WX    TMP DP  RH WIND       PRES   REMARKS
CORPUS CHRISTI PTCLDY    72  67  84 SE9       29.95S
NAS CORPUS CHR PTCLDY    73  68  84 SE16      29.96R
ROCKPORT       CLOUDY    75  68  78 SE14      29.96R
KINGSVILLE NAS MOCLDY    73  71  93 SE8       29.94S
ALICE          CLOUDY    72  68  87 SE6       29.94S
FALFURRIAS     CLEAR     70  68  91 E5        29.93S
$$

...VICTORIA AREA OBSERVATIONS...

CITY           SKY/WX    TMP DP  RH WIND       PRES   REMARKS
VICTORIA       PTCLDY    66  66 100 E6        29.99R
BEEVILLE       FAIR      68  68 100 E6        29.97R
PLEASANTON     CLOUDY    67  65  92 E6        29.98R
SAN ANTONIO    CLOUDY    69  65  86 SE9       29.99S
$$

...LAREDO AREA OBSERVATIONS...

CITY           SKY/WX    TMP DP  RH WIND       PRES   REMARKS
LAREDO         CLOUDY    73  68  84 SE14      29.92S
COTULLA        MOCLDY    73  66  78 SE9       29.95R
DEL RIO        CLOUDY    71  65  81 SE12      29.89S
MCALLEN        CLOUDY    76  70  82 SE13      29.91F
HEBBRONVILLE     N/A     72  69  90 SE13      29.94R
$$

...OTHER TEXAS OBSERVATIONS...

CITY           SKY/WX    TMP DP  RH WIND       PRES   REMARKS
BROWNSVILLE    CLOUDY    74  68  81 SE10      29.94R
HOUSTON        PTCLDY    62  60  93 CALM      30.04R
COL. STATION   CLEAR     63  60  90 SE3       30.02S
AUSTIN         MOCLDY    61  61 100 CALM      30.01R
WACO           CLOUDY    66  63  90 S8        30.01S
FORT WORTH     MOCLDY    66  63  90 S14       30.01R
WICHITA FALLS  CLEAR     62  58  86 S12       29.96R
LUBBOCK        MOCLDY    59  53  80 CALM      29.97R
EL PASO        PTCLDY    67  46  47 N10       29.90R
$$

...MARINE OBSERVATIONS...

STATION/POSITION TIME  SKY/WX   TEMP    WIND        PRES    VSBY  WAVE   SWELL
                                AIR SEA DIR/SP/G                  HT/PER HT/PER
                 (UTC)          (F)     (DEG/KT/KT) (MB)    (MI)  (FT/S) (FT/S)
PORT ARANSAS     1100            74 76  120/ 16/ 19 1015.1R
BUOY 90 E PORT A 1050            75 75  130/ 16/ 17 1015.6R         4/ 6
BUOY 45 SE BAFFI 1050            74 74  130/ 14/ 16 1014.0F         4/ 6   2/11
BUOY 200 E PT IS 1050            77 77  120/ 14/ 17 1015.1R         3/ 5
BUOY 15 E GALVES 1050            74 74  140/ 12/ 16 1016.5R         3/ 5
$$


USA.gov is the U.S. government's official web portal to all federal, state and local government web resources and services.